Simultaneous Nadir Overpasses (SNOs) Predictions

Prediction of SNOs between NOAA-20 and AQUA Satellite Orbit:

Table of predicted SNOs for the next 14.0 days since TLE Epoch: 6/1/2024
Index Date (NOAA-20) Time (NOAA-20) Lat,Lon (NOAA-20) SZA (NOAA-20 ) Date (AQUA) Time (AQUA) Lat,Lon (AQUA) SZA (AQUA ) Distance(km) Time Diff (sec)
1 06/02/2024 22:42:29 -81.26, -57.16 114.19 06/02/2024 22:43:26 -81.26, -57.15 114.22 0.19 57
2 06/02/2024 23:33:12 81.27, 110.85 65.71 06/02/2024 23:32:47 81.28, 110.87 65.73 0.61 25
3 06/05/2024 11:36:18 -81.26, 109.35 114.45 06/05/2024 11:36:34 -81.26, 109.53 114.48 3.03 16
4 06/05/2024 12:27:01 81.27, -82.65 65.45 06/05/2024 12:25:55 81.27, -82.50 65.47 2.47 66
5 06/07/2024 23:39:20 81.27, 108.91 65.29 06/07/2024 23:40:17 81.27, 108.83 65.27 1.37 57
6 06/08/2024 00:30:04 -81.27, -83.41 114.77 06/08/2024 00:29:39 -81.27, -83.41 114.75 0.21 25
7 06/10/2024 12:33:09 81.26, -84.68 65.13 06/10/2024 12:33:23 81.26, -84.53 65.10 2.60 14
8 06/10/2024 13:23:51 -81.28, 83.78 115.04 06/10/2024 13:22:44 -81.29, 83.64 114.98 2.29 67
9 06/13/2024 00:36:13 -81.26, -85.53 115.00 06/13/2024 00:37:06 -81.26, -85.35 115.06 2.93 53



Historial Predications of SNOs between NOAA-20 and AQUA
